Starlink 33595

operational
NORAD ID: 62766 Int'l Des: 2025-015 Owner: SPXS Country: US Constellation: starlink
LEOCIRCULAR

Über Starlink 33595

Beschreibung wird geladen...

Live-Position

3D-Globus wird geladen...

Nächste Überflüge

Höhenverlauf

Altitude vs Time

uPlot chart will show altitude changes over time

Zweizeiliger Elementsatz

1 62766U 25015J 26035.90239965 .00037641 00000-0 12759-2 0 9996
2 62766 53.1568 114.5796 0001333 67.8768 292.2374 15.30216961 59469
Epoch: 4. Feb. 2026 • Age: 14 hours

Aktueller Status

Höhe 484.1 km
Geschwindigkeit 7.62 km/s
Subsatellitenpunkt -29.09°S, 137.71°E
Startdatum 21. Jan. 2025
Alter 1 years
Typ internet

Technische Details

Klassifizierung Payload
Masse 575.00 kg
Trockenmasse 530.00 kg
Gesamtmasse 575.00 kg
Länge 0.30 m
Durchmesser 4.10 m
Spannweite 29.00 m
Form Box + pan
Hersteller SPXS
Bus-Typ Starlink V2MO
Phasenstatus In Orbit
Besitzer/Staat SPXS/US

Große Konstellationen

Loading constellations...